TimeCST,TemperatureF,Dew PointF,Humidity,Sea Level PressureIn,VisibilityMPH,Wind Direction,Wind SpeedMPH,Gust SpeedMPH,PrecipitationIn,Events,Conditions,WindDirDegrees,DateUTC
12:55 AM,16.5,7.3,67,30.21,10.0,West,9.2,-,N/A,,Clear,270,2011-12-09 06:55:00
1:55 AM,12.6,5.7,74,30.21,10.0,West,6.9,-,N/A,,Partly Cloudy,260,2011-12-09 07:55:00
2:55 AM,10.8,4.8,77,30.23,10.0,West,6.9,-,N/A,,Clear,260,2011-12-09 08:55:00
3:55 AM,9.7,3.4,76,30.24,10.0,West,6.9,-,N/A,,Clear,270,2011-12-09 09:55:00
4:55 AM,8.1,4.1,84,30.25,10.0,West,3.5,-,N/A,,Clear,260,2011-12-09 10:55:00
5:55 AM,9.3,4.3,80,30.26,10.0,West,4.6,-,N/A,,Clear,280,2011-12-09 11:55:00
6:55 AM,5.0,1.4,85,30.28,10.0,West,9.2,-,N/A,,Clear,270,2011-12-09 12:55:00
7:55 AM,6.8,3.2,85,30.30,10.0,West,4.6,-,N/A,,Clear,280,2011-12-09 13:55:00
8:55 AM,12.2,6.8,79,30.32,10.0,West,8.1,-,N/A,,Clear,280,2011-12-09 14:55:00
9:55 AM,15.8,6.8,68,30.33,10.0,WNW,10.4,-,N/A,,Clear,290,2011-12-09 15:55:00
10:55 AM,17.6,5.0,58,30.34,10.0,West,12.7,18.4,N/A,,Clear,280,2011-12-09 16:55:00
11:55 AM,17.6,5.0,58,30.33,10.0,WNW,10.4,-,N/A,,Partly Cloudy,290,2011-12-09 17:55:00
12:55 PM,19.4,5.0,54,30.33,10.0,WNW,10.4,-,N/A,,Partly Cloudy,290,2011-12-09 18:55:00
1:55 PM,19.4,5.0,54,30.32,10.0,WSW,13.8,-,N/A,,Partly Cloudy,250,2011-12-09 19:55:00
2:55 PM,19.4,3.2,49,30.34,10.0,West,10.4,-,N/A,,Partly Cloudy,270,2011-12-09 20:55:00
3:55 PM,15.8,3.2,58,30.36,10.0,West,13.8,-,N/A,,Clear,260,2011-12-09 21:55:00
4:55 PM,11.7,1.9,65,30.37,10.0,West,9.2,-,N/A,,Clear,260,2011-12-09 22:55:00
5:55 PM,8.6,1.4,73,30.39,10.0,West,6.9,-,N/A,,Clear,280,2011-12-09 23:55:00
6:55 PM,5.4,0.1,79,30.41,10.0,WNW,6.9,-,N/A,,Clear,290,2011-12-10 00:55:00
7:55 PM,6.3,0.3,77,30.42,10.0,West,8.1,-,N/A,,Clear,280,2011-12-10 01:55:00
8:55 PM,7.5,1.4,76,30.43,10.0,West,8.1,-,N/A,,Clear,270,2011-12-10 02:55:00
10:55 PM,5.5,0.1,78,30.45,10.0,West,5.8,-,N/A,,Clear,280,2011-12-10 04:55:00
11:55 PM,5.4,0.1,79,30.44,10.0,West,5.8,-,N/A,,Clear,280,2011-12-10 05:55:00